Regional Weather Roundup
Issued by NWS

Home | Current Version | Previous Version | Graphics & Text | Print | Product List | Glossary On
Versions: 1 2 3 4 5 6 7 8 9 10 11 12 13 14 15 16 17 18 19 20 21 22 23 24 25 26 27 28 29 30 31 32 33 34 35 36 37 38 39 40 41 42 43 44 45 46 47
000
ASUS43 KMPX 050810
RWRMN
WEATHER ROUNDUP FOR MINNESOTA
NATIONAL WEATHER SERVICE TWIN CITIES/CHANHASSEN MN
300 AM CDT SAT SEP 05 2015


NOTE: "FAIR" INDICATES FEW OR NO CLOUDS BELOW 12,000 FEET WITH NO
SIGNIFICANT WEATHER AND/OR OBSTRUCTIONS TO VISIBILITY. N/A MEANS
CURRENT SKY AND/OR WEATHER CONDITIONS ARE NOT AVAILABLE.

MNZ060>063-068>070-050900-
   Twin Cities Metro

CITY           SKY/WX    TMP DP  RH WIND       PRES   REMARKS
TWIN CITIES    MOCLDY    77  70  79 SE9       29.94S
ST PAUL        MOCLDY    75  71  87 S8        29.94S
CRYSTAL        CLOUDY    79  70  74 SE9       29.92S
BLAINE         MOCLDY    77  73  88 SE5       29.94S
LAKEVILLE      PTCLDY    72  72 100 CALM      29.95S
EDEN PRAIRIE   PTCLDY    77  71  82 SE8       29.93S
SOUTH ST PAUL  MOCLDY    76  69  79 S5        29.95S
LAKE ELMO      FAIR      73  70  88 SE5       29.97S
$$
MNZ001>005-007-008-013>017-022>024-027-028-050900-
   Northwest Minnesota

CITY           SKY/WX    TMP DP  RH WIND       PRES   REMARKS
BEMIDJI        CLOUDY    70  69  96 SE6       29.90F
HALLOCK        CLOUDY    64  63  94 CALM      29.89S FOG
ROSEAU         HAZE      63  57  82 CALM      29.91R VSB 3/4
WARROAD        MOCLDY    64  61  88 CALM      29.91S FOG
THIEF RVR FALL CLOUDY    70  68  94 NE10      29.88F
CROOKSTON      PTCLDY    70  66  88 NE7       29.87S
FOSSTON        CLOUDY    70  66  88 CALM      29.89F
DETROIT LAKES  PTCLDY    72  68  88 SE5       29.89F
MOORHEAD       CLEAR     72  68  88 SE5       29.85S
PARK RAPIDS    CLOUDY    74  70  87 SE7       29.90S
MAHNOMEN       PTSUNNY   73  68  85 SE6       29.87S
$$
MNZ006-009>011-018-025>026-050900-
   North Central Minnesota

CITY           SKY/WX    TMP DP  RH WIND       PRES   REMARKS
BAUDETTE       CLOUDY    71  69  93 N3        29.91S
FLAG ISLAND    CLOUDY    70  66  88 NW9       29.89S FOG
INTL FALLS     LGT RAIN  67  66  97 NE3       29.91F
WASKISH        MOCLDY    70  66  88 SE3       29.90S
BIG FORK       CLOUDY    66  64  94 SE5       29.94S
LONGVILLE      CLOUDY    72  72 100 SE3       29.91F FOG
GRAND RAPIDS     N/A     66  64  94 SE6       29.96R
CRANE LAKE     CLOUDY    64  63  94 S1        29.96S
ORR            CLOUDY    64  63  94 CALM      29.93S
COOK           CLOUDY    64  64 100 SE5       29.97S
WALKER         CLOUDY    70  70  99 E3        29.91S
$$
MNZ012-019>021-037-050900-
   Northeast Minnesota

CITY           SKY/WX    TMP DP  RH WIND       PRES   REMARKS
DULUTH         CLOUDY    65  61  87 E5        30.00R
ELY            TSTM      64  63  94 E5        29.99F
HIBBING        CLOUDY    66  64  93 SE6       29.99R
EVELETH        CLOUDY    64  64 100 E5        30.00S
DULUTH HARBOR  MOCLDY    61  57  88 NE8       29.98S
TWO HARBORS    CLOUDY    70  64  83 N7        29.99R
SILVER BAY     CLOUDY    72  63  73 N3        29.99R
GRAND MARAIS     N/A     63  58  83 CALM      30.01S
G MARAIS ARPRT CLOUDY    63  57  82 CALM      30.06S
$$
MNZ029>031-032-039>041-046>048-054>057-064-050900-
   West Central Minnesota

CITY           SKY/WX    TMP DP  RH WIND       PRES   REMARKS
FERGUS FALLS   MOCLDY    73  70  88 SE6       29.85S
WHEATON        CLEAR     68  66  94 E5        29.85S
MORRIS         PTCLDY    72  72 100 SE7       29.85S
ALEXANDRIA     MOCLDY    72  70  93 SE7       29.90S
ELBOW LAKE     FAIR      72  70  95 SE6       29.86S
WADENA         CLOUDY    72  68  88 SE5       29.89S
GLENWOOD       LGT RAIN  75  70  83 S12       29.89S
APPLETON       PTCLDY    75  70  83 S9        29.83S
BENSON         CLEAR     75  70  83 S6        29.86R
ORTONVILLE     CLEAR     72  70  94 SE5       29.84S
MADISON        CLEAR     72  70  94 SE5       29.83F
WILLMAR        MOCLDY    75  72  88 SE8       29.90R
$$
MNZ033>034-036-042>043-049>051-058-059-050900-
   Central Minnesota

CITY           SKY/WX    TMP DP  RH WIND       PRES   REMARKS
ST CLOUD       CLOUDY    74  68  81 SE6       29.92S
SAUK CENTRE    PTSUNNY   72  70  92 SE7       29.90S
PAYNESVILLE    MOCLDY    76  69  78 SE8       29.91S THUNDER
AITKIN         MOCLDY    72  66  83 CALM      29.93S HAZE
PINE RIVER     MOCLDY    73  73 100 SE6       29.95S
BRAINERD       CLOUDY    73  71  93 CALM      29.92F
STAPLES        CLOUDY    72  68  88 S14G21    29.90F
LONG PRAIRIE   LGT RAIN  70  68  94 E7        29.91S
LITTLE FALLS   MOCLDY    72  64  78 CALM      29.92S
LITCHFIELD     MOCLDY    79  73  83 SE7       29.91F
BUFFALO        MOCLDY    75  68  80 SE5       29.94S
MAPLE LAKE     PTCLDY    75  71  87 SE5       29.93S
$$
MNZ037-044-045-052-053-050900-
   East Central Minnesota

CITY           SKY/WX    TMP DP  RH WIND       PRES   REMARKS
PRINCETON      MOCLDY    73  70  88 CALM      29.94R
MORA           PTCLDY    70  68  94 CALM      29.96S
CAMBRIDGE      PTCLDY    75  66  73 SE5       29.93S
RUSH CITY      MOCLDY    73  70  90 SE3       29.95S
MOOSE LAKE     MOCLDY    61  59  94 NE3       29.95F
HINCKLEY       FAIR      73  72  94 SE3       29.96S
CLOQUET        MOCLDY    63  59  88 CALM      29.98S
MCGREGOR       MOCLDY    66  64  94 CALM      29.96S
$$
MNZ071>073-080-081-089-090-097-098-050900-
   Southwest Minnesota

CITY           SKY/WX    TMP DP  RH WIND       PRES   REMARKS
MONTEVIDEO     CLEAR     73  72  94 S8        29.87S
GRANITE FALLS  CLEAR     73  70  90 SE8       29.88S
CANBY          CLEAR     77  67  72 S9        29.85S
MARSHALL       CLEAR     75  66  73 S12       29.87S
REDWOOD FALLS  PTCLDY    74  71  91 SE12      29.88S
OLIVIA         MOCLDY    73  68  83 S12       29.88F
PIPESTONE      PTCLDY    75  66  73 S12       29.88F
WINDOM         PTCLDY    75  68  78 S10G16    29.92S
WORTHINGTON    PTCLDY    73  66  78 S10G17    29.91S
JACKSON        PTCLDY    75  70  83 S12       29.94S
TRACY          PTCLDY    75  70  84 S12       29.88S
SLAYTON        PTCLDY    71  69  95 SE7       29.91F
$$
MNZ065>067-074>077-082>085-091>093-050900-
   South Central Minnesota

CITY           SKY/WX    TMP DP  RH WIND       PRES   REMARKS
MANKATO        PTCLDY    73  72  94 SE10      29.93F
NEW ULM        MOCLDY    75  72  88 S10       29.91F
ST JAMES       PTCLDY    75  72  88 SE8       29.93S
FAIRMONT       PTCLDY    73  66  78 SE9       29.93F
GLENCOE        MOCLDY    77  73  88 SE6       29.92S
FARIBAULT      PTCLDY    75  72  88 SE8       29.96S
OWATONNA       MOCLDY    75  72  88 SE8       29.97S
WASECA         PTCLDY    72  70  94 SE6       29.97S
ALBERT LEA     PTCLDY    75  72  88 SE5       29.98S
$$
MNZ078>079-086>088-094>096-050900-
   Southeast Minnesota

CITY           SKY/WX    TMP DP  RH WIND       PRES   REMARKS
ROCHESTER      MOCLDY    73  70  90 SE8       30.00F
RED WING       CLOUDY    75  72  88 SE5       29.96S
STANTON        MOCLDY    77  70  81 SE7       29.95S
DODGE CENTER   PTCLDY    72  70  94 S6        29.99F
WINONA         CLOUDY    73  72  94 SE3       30.01R
AUSTIN         CLOUDY    73  72  94 SE3       29.99S
PRESTON        MOCLDY    73  69  85 CALM      30.02S
$$
ABBREVIATIONS USED IN REMARKS
   TC - TEMPERATURES IN CELSIUS
  WCI - WIND CHILL INDEX
   HX - HEAT INDEX
  VSB - VISIBILITY
$$


USA.gov is the U.S. government's official web portal to all federal, state and local government web resources and services.